TimeCDT,TemperatureF,Dew PointF,Humidity,Sea Level PressureIn,VisibilityMPH,Wind Direction,Wind SpeedMPH,Gust SpeedMPH,PrecipitationIn,Events,Conditions,WindDirDegrees,DateUTC
12:56 AM,73.0,71.1,93,29.91,7.0,Calm,Calm,-,N/A,,Scattered Clouds,0,2013-08-02 05:56:00
1:56 AM,73.0,71.1,93,29.89,5.0,Calm,Calm,-,N/A,,Clear,0,2013-08-02 06:56:00
2:05 AM,71.6,69.8,94,29.94,3.0,Calm,Calm,-,N/A,,Scattered Clouds,0,2013-08-02 07:05:00
2:11 AM,71.6,69.8,94,29.94,1.8,Calm,Calm,-,N/A,,Scattered Clouds,0,2013-08-02 07:11:00
2:21 AM,71.6,69.8,94,29.94,1.2,Calm,Calm,-,N/A,,Mostly Cloudy,0,2013-08-02 07:21:00
2:31 AM,73.4,71.6,94,29.93,2.0,Calm,Calm,-,N/A,,Scattered Clouds,0,2013-08-02 07:31:00
2:46 AM,71.6,69.8,94,29.93,3.0,Calm,Calm,-,N/A,,Partly Cloudy,0,2013-08-02 07:46:00
2:48 AM,71.6,69.8,94,29.93,1.8,Calm,Calm,-,N/A,,Scattered Clouds,0,2013-08-02 07:48:00
2:52 AM,71.6,69.8,94,29.93,0.8,Calm,Calm,-,N/A,,Mist,0,2013-08-02 07:52:00
2:56 AM,72.0,70.0,93,29.89,0.8,Calm,Calm,-,N/A,,Mist,0,2013-08-02 07:56:00
3:00 AM,71.6,69.8,94,29.93,1.2,Calm,Calm,-,N/A,,Partly Cloudy,0,2013-08-02 08:00:00
3:07 AM,71.6,69.8,94,29.93,3.0,Calm,Calm,-,N/A,,Partly Cloudy,0,2013-08-02 08:07:00
3:19 AM,71.6,69.8,94,29.93,1.8,Calm,Calm,-,N/A,,Scattered Clouds,0,2013-08-02 08:19:00
3:29 AM,71.6,69.8,94,29.94,3.0,Calm,Calm,-,N/A,,Scattered Clouds,0,2013-08-02 08:29:00
3:42 AM,71.6,69.8,94,29.94,2.5,Calm,Calm,-,N/A,,Mostly Cloudy,0,2013-08-02 08:42:00
3:52 AM,71.6,69.8,94,29.94,0.8,Calm,Calm,-,N/A,,Mist,0,2013-08-02 08:52:00
3:56 AM,71.1,70.0,96,29.90,0.8,Calm,Calm,-,N/A,,Mist,0,2013-08-02 08:56:00
4:05 AM,71.6,69.8,94,29.95,1.2,Calm,Calm,-,N/A,,Overcast,0,2013-08-02 09:05:00
4:30 AM,71.6,69.8,94,29.96,0.5,Calm,Calm,-,N/A,Fog,Fog,0,2013-08-02 09:30:00
4:53 AM,71.6,69.8,94,29.96,1.2,Calm,Calm,-,N/A,,Overcast,0,2013-08-02 09:53:00
4:56 AM,71.1,69.1,93,29.91,1.2,Calm,Calm,-,N/A,,Overcast,0,2013-08-02 09:56:00
5:12 AM,71.6,69.8,94,29.95,3.0,Calm,Calm,-,N/A,,Mostly Cloudy,0,2013-08-02 10:12:00
5:49 AM,73.4,71.6,94,29.96,1.8,Calm,Calm,-,N/A,,Overcast,0,2013-08-02 10:49:00
5:56 AM,73.0,72.0,96,29.92,0.2,Calm,Calm,-,N/A,Fog,Fog,0,2013-08-02 10:56:00
6:28 AM,73.4,71.6,94,29.97,0.1,NNE,3.5,-,N/A,Fog,Fog,30,2013-08-02 11:28:00
6:56 AM,75.0,73.0,94,29.93,0.1,NNE,4.6,-,0.01,Fog,Fog,30,2013-08-02 11:56:00
7:25 AM,75.2,73.4,94,29.99,0.2,NNE,3.5,-,N/A,Fog,Fog,30,2013-08-02 12:25:00
7:56 AM,75.9,73.9,94,29.95,0.2,North,3.5,-,N/A,Fog,Fog,350,2013-08-02 12:56:00
8:06 AM,75.2,73.4,94,29.99,0.5,Calm,Calm,-,N/A,Fog,Fog,0,2013-08-02 13:06:00
8:13 AM,75.2,73.4,94,29.99,1.0,North,4.6,-,N/A,,Overcast,10,2013-08-02 13:13:00
8:19 AM,75.2,73.4,94,29.99,3.0,North,3.5,-,N/A,,Mostly Cloudy,360,2013-08-02 13:19:00
8:47 AM,75.2,73.4,94,29.99,7.0,North,3.5,-,N/A,,Mostly Cloudy,360,2013-08-02 13:47:00
8:56 AM,78.1,75.0,90,29.96,7.0,Calm,Calm,-,N/A,,Mostly Cloudy,0,2013-08-02 13:56:00
9:30 AM,80.6,75.2,84,29.99,10.0,Calm,Calm,-,N/A,,Mostly Cloudy,0,2013-08-02 14:30:00
9:56 AM,82.9,73.9,74,29.96,10.0,Calm,Calm,-,N/A,,Scattered Clouds,0,2013-08-02 14:56:00
10:56 AM,88.0,75.9,67,29.96,10.0,NE,4.6,-,N/A,,Scattered Clouds,50,2013-08-02 15:56:00
11:56 AM,91.0,73.0,55,29.97,10.0,Calm,Calm,-,N/A,,Scattered Clouds,0,2013-08-02 16:56:00
12:56 PM,91.0,73.9,57,29.96,10.0,Variable,4.6,-,N/A,,Mostly Cloudy,0,2013-08-02 17:56:00
1:56 PM,91.9,73.9,55,29.94,10.0,Calm,Calm,-,N/A,,Mostly Cloudy,0,2013-08-02 18:56:00
2:56 PM,89.1,75.9,65,29.92,10.0,South,8.1,-,N/A,,Mostly Cloudy,190,2013-08-02 19:56:00
3:56 PM,90.0,75.9,63,29.91,10.0,South,8.1,-,N/A,,Mostly Cloudy,190,2013-08-02 20:56:00
4:56 PM,88.0,75.9,67,29.91,10.0,South,8.1,-,N/A,,Mostly Cloudy,170,2013-08-02 21:56:00
5:56 PM,86.0,73.0,65,29.92,10.0,NE,10.4,-,N/A,,Mostly Cloudy,40,2013-08-02 22:56:00
6:06 PM,84.2,71.6,66,29.96,10.0,ENE,18.4,33.4,0.00,Rain,Light Rain,60,2013-08-02 23:06:00
6:22 PM,84.2,73.4,70,29.96,5.0,ESE,11.5,21.9,0.00,Rain,Light Rain,110,2013-08-02 23:22:00
6:51 PM,78.8,73.4,83,29.97,7.0,SSW,6.9,-,0.03,,Mostly Cloudy,200,2013-08-02 23:51:00
6:56 PM,79.0,72.0,79,29.93,7.0,SSW,4.6,-,0.03,,Mostly Cloudy,210,2013-08-02 23:56:00
7:56 PM,80.1,72.0,76,29.95,10.0,SSW,3.5,-,N/A,,Mostly Cloudy,210,2013-08-03 00:56:00
8:56 PM,80.1,73.9,81,29.97,10.0,East,3.5,-,N/A,,Mostly Cloudy,90,2013-08-03 01:56:00
9:56 PM,79.0,75.0,88,29.98,10.0,Calm,Calm,-,N/A,,Scattered Clouds,0,2013-08-03 02:56:00
10:56 PM,78.1,75.0,90,29.99,10.0,Calm,Calm,-,N/A,,Scattered Clouds,0,2013-08-03 03:56:00
11:56 PM,79.0,75.0,88,29.99,10.0,SSW,3.5,-,N/A,,Clear,200,2013-08-03 04:56:00